[[{"header":{"parameterUnit":"m.s-1","parameterCategory":1,"la1":30.2991,"la2":30.254,"lo1":-89.0895,"lo2":-89.0444,"dy":0.0017,"dx":0.0017,"nx":28,"ny":28,"refTime":"2024-03-28T03:00:00:Z","depth":0,"parameterNumber":2,"parameterNumberName":"U-component_of_WINDS"},"data":[0,0,0,0,0,0,0,0,0,0,0,0,0,0,0,0,0,0,0,0,0,0,0,0,0,0,0,0,0,0,0,0,0,0,0,0,0,0,0,0,0,0,0,0,0,0,0,0,0,0,0,0,0,0,0,0,0,0,0.0447,0.0448,0,0.0503,0.0504,0.0504,0.0524,0.0524,0.0524,0.0523,0.0582,0.0584,0.0585,0,0,0,0,0,0,0,0,0,0,0,0,0,0.0361,0.0362,0.0447,0.0448,0.0449,0.0503,0.0504,0.0504,0.0524,0.0524,0.0524,0.0523,0.0581,0.0583,0.0586,0,0,0,0,0,0,0,0,0,0,0,0,0,0.0406,0.0363,0.0447,0.0465,0.0467,0.0503,0.0504,0.0505,0.0524,0.0524,0.0524,0.0523,0.0581,0.0583,0.0586,0.0608,0,0,0.0594,0.0595,0,0,0,0,0,0,0,0,0.0403,0.0409,0.0462,0.0464,0.0466,0.0506,0.0495,0.0539,0.0524,0.0502,0.0523,0.0523,0.0557,0.0562,0.0573,0.0611,0.0613,0.0594,0.0596,0.0597,0.0598,0,0,0,0,0,0,0,0.04,0.0407,0.0469,0.0462,0.0465,0.0471,0.0477,0.0503,0.0531,0.0504,0.0506,0.0512,0.0558,0.057,0.0574,0.0614,0.0594,0.0596,0.0598,0.0599,0.0676,0.0677,0,0,0,0,0,0,0.0394,0.0404,0.0468,0.0471,0.0433,0.0473,0.048,0.0494,0.0531,0.0536,0.0512,0.0513,0.0566,0.0571,0.0576,0.0607,0.0597,0.0599,0.0601,0.0676,0.0676,0.0677,0,0,0,0,0,0,0.0392,0.0399,0.0465,0.0438,0.0447,0.0475,0.049,0.0495,0.0507,0.0537,0.0542,0.0519,0.0566,0.0573,0.0601,0.0609,0.06,0.0603,0.0675,0.0676,0.0677,0.0666,0,0,0,0,0,0,0.0389,0.0398,0.0406,0.0438,0.0448,0.0487,0.0491,0.0496,0.0511,0.0512,0.0545,0.055,0.0566,0.0597,0.0603,0.0612,0.0605,0.0675,0.0676,0.0677,0.0666,0.0667,0.0667,0,0,0,0,0,0.0386,0.0401,0.0406,0.0414,0.0458,0.0488,0.0494,0.0512,0.0512,0.0521,0.054,0.0549,0.0607,0.0599,0.0607,0.0617,0.0674,0.0675,0.0676,0.0666,0.0666,0.0667,0,0,0,0,0,0,0.0369,0.0405,0.0412,0.0437,0.0459,0.0491,0.0503,0.0512,0.0535,0.0535,0.0557,0.0565,0.0591,0.0607,0.0598,0.0642,0.0641,0.0644,0.0631,0.0631,0.0632,0.0628,0.0607,0,0,0,0,0,0.0368,0.0388,0.0419,0.0439,0.045,0.0474,0.0488,0.05,0.0524,0.0534,0.0555,0.0579,0.0603,0.0618,0.0641,0.0669,0.0677,0.0679,0.068,0.068,0.0682,0.07,0.0702,0.0681,0.0681,0.0681,0,0,0.0367,0.0389,0.04,0.0436,0.0455,0.0476,0.0482,0.0504,0.0521,0.0537,0.0565,0.0582,0.061,0.0638,0.0651,0.0652,0.069,0.0682,0.0682,0.0684,0.0701,0.0703,0.0705,0.0681,0.0681,0.0681,0,0,0.0376,0.0394,0.0413,0.0432,0.046,0.0477,0.0482,0.0513,0.0524,0.0553,0.0566,0.0587,0.0627,0.0647,0.0663,0.0681,0.0691,0.0688,0.0691,0.0708,0.071,0.0712,0.072,0.0722,0.069,0.069,0.069,0,0.037,0.0403,0.0422,0.0444,0.046,0.0476,0.0497,0.0514,0.0549,0.056,0.056,0.0612,0.0632,0.0666,0.0671,0.0682,0.069,0.0685,0.0708,0.071,0.0712,0.072,0.0723,0.069,0.069,0.069,0.069,0,0.0396,0.0418,0.043,0.0464,0.0481,0.0502,0.0526,0.0541,0.0553,0.057,0.06,0.0625,0.0654,0.0663,0.0674,0.07,0.07,0.0703,0.0703,0.0713,0.0721,0.0724,0.069,0.069,0.069,0.069,0,0,0.0394,0.0439,0.0443,0.046,0.0493,0.0511,0.0534,0.0563,0.0577,0.0601,0.0622,0.0656,0.0661,0.0678,0.0692,0.0707,0.0723,0.071,0.0711,0.0712,0.0754,0.0752,0.0755,0.0729,0.073,0.073,0.0752,0,0.0408,0.0448,0.0467,0.05,0.0522,0.0539,0.0559,0.0583,0.06,0.0622,0.0642,0.0666,0.067,0.0681,0.0696,0.0717,0.0732,0.0716,0.075,0.0751,0.0743,0.0759,0.0756,0.0775,0.0756,0.0756,0.0756,0,0.0429,0.0453,0.0488,0.0521,0.0531,0.0549,0.0578,0.0598,0.0626,0.0638,0.0659,0.0673,0.0699,0.0697,0.0735,0.0724,0.0739,0.0752,0.0753,0.0757,0.0754,0.0765,0.0782,0.0785,0.0761,0.0761,0.0761,0,0.0426,0.0467,0.0494,0.0507,0.0546,0.0558,0.0575,0.0603,0.062,0.0646,0.0658,0.0686,0.0702,0.0725,0.0747,0.0743,0.0783,0.0783,0.0795,0.0795,0.0803,0.0802,0.0823,0.0811,0.0811,0.0811,0.0811,0,0.0439,0.046,0.0493,0.051,0.0535,0.0557,0.0582,0.06,0.0625,0.0646,0.0663,0.0683,0.071,0.0734,0.0752,0.0781,0.0788,0.08,0.0804,0.0798,0.0797,0.0809,0.0809,0.0812,0.0812,0.0811,0.0811,0,0.0439,0.0462,0.0493,0.0528,0.0537,0.0554,0.0584,0.0602,0.0621,0.0648,0.0656,0.0685,0.0715,0.0739,0.0777,0.0789,0.0821,0.0825,0.0811,0.0814,0.0825,0.0824,0.0856,0.0862,0.0844,0.0844,0.0844,0,0.0447,0.0463,0.05,0.0516,0.0533,0.0557,0.0575,0.0599,0.0617,0.0652,0.0665,0.0696,0.0722,0.0769,0.0794,0.0824,0.0831,0.084,0.0835,0.083,0.0832,0.0831,0.0834,0.084,0.084,0.084,0.084,0,0.0458,0.0469,0.0493,0.0523,0.0544,0.0568,0.0593,0.0605,0.0634,0.0654,0.0684,0.0704,0.0744,0.0775,0.0808,0.0827,0.0839,0.0842,0.0846,0.0841,0.0833,0.0839,0.0813,0.0841,0.0841,0.0841,0.0841,0.0841,0.0463,0.0479,0.0508,0.0536,0.0557,0.0581,0.06,0.0621,0.0647,0.0681,0.0694,0.0726,0.0756,0.0802,0.0821,0.0847,0.0849,0.0855,0.0857,0.0858,0.0858,0.0828,0.0853,0.0853,0.0853,0.0853,0.0853,0,0.0476,0.0496,0.0521,0.0556,0.0578,0.0587,0.0616,0.0634,0.0662,0.0689,0.0714,0.0751,0.0781,0.081,0.0843,0.0858,0.0865,0.0866,0.0866,0.087,0.0854,0.0848,0.0861,0.0861,0.0861,0.0861,0.0861,0.0861,0.0485,0.0514,0.0529,0.057,0.059,0.0621,0.0637,0.0659,0.0681,0.0721,0.0746,0.0765,0.0794,0.0829,0.0858,0.0866,0.0878,0.0878,0.0887,0.0872,0.0871,0.087,0.0864,0.088,0.088,0.0901,0.0902,0.0902]},{"header":{"parameterUnit":"m.s-1","parameterCategory":1,"la1":30.2991,"la2":30.254,"lo1":-89.0895,"lo2":-89.0444,"dy":0.0017,"dx":0.0017,"nx":28,"ny":28,"refTime":"2024-03-28T03:00:00:Z","depth":0,"parameterNumber":3,"parameterNumberName":"V-component_of_WINDS"},"data":[0,0,0,0,0,0,0,0,0,0,0,0,0,0,0,0,0,0,0,0,0,0,0,0,0,0,0,0,0,0,0,0,0,0,0,0,0,0,0,0,0,0,0,0,0,0,0,0,0,0,0,0,0,0,0,0,0,0,-4.3497,-4.3497,0,-4.3544,-4.3544,-4.3545,-4.3564,-4.3564,-4.3563,-4.3563,-4.3607,-4.3609,-4.361,0,0,0,0,0,0,0,0,0,0,0,0,0,-4.342,-4.3421,-4.3497,-4.3497,-4.3498,-4.3544,-4.3544,-4.3545,-4.3564,-4.3564,-4.3563,-4.3563,-4.3607,-4.3608,-4.361,0,0,0,0,0,0,0,0,0,0,0,0,0,-4.3459,-4.3422,-4.3497,-4.3513,-4.3515,-4.3544,-4.3544,-4.3545,-4.3564,-4.3564,-4.3563,-4.3563,-4.3606,-4.3608,-4.361,-4.3625,0,0,-4.3616,-4.3617,0,0,0,0,0,0,0,0,-4.3457,-4.3462,-4.351,-4.3512,-4.3514,-4.3548,-4.3534,-4.3572,-4.3564,-4.3545,-4.3563,-4.3563,-4.3587,-4.3591,-4.36,-4.3627,-4.3629,-4.3616,-4.3617,-4.3618,-4.3619,0,0,0,0,0,0,0,-4.3454,-4.346,-4.3515,-4.351,-4.3513,-4.3517,-4.3522,-4.3541,-4.3566,-4.3547,-4.3548,-4.3554,-4.3588,-4.3598,-4.3601,-4.363,-4.3616,-4.3618,-4.3619,-4.362,-4.3673,-4.3674,0,0,0,0,0,0,-4.3449,-4.3457,-4.3514,-4.3517,-4.3484,-4.3518,-4.3524,-4.3537,-4.3566,-4.3571,-4.3554,-4.3554,-4.3595,-4.3599,-4.3603,-4.3623,-4.3618,-4.362,-4.3621,-4.3673,-4.3674,-4.3674,0,0,0,0,0,0,-4.3447,-4.3454,-4.3512,-4.3487,-4.3495,-4.352,-4.3534,-4.3538,-4.3548,-4.3572,-4.3576,-4.3559,-4.3595,-4.36,-4.362,-4.3625,-4.3621,-4.3622,-4.3673,-4.3673,-4.3674,-4.3664,0,0,0,0,0,0,-4.3445,-4.3453,-4.3459,-4.3488,-4.3496,-4.3529,-4.3534,-4.3539,-4.3551,-4.3553,-4.3578,-4.3582,-4.3595,-4.3617,-4.3622,-4.3628,-4.3624,-4.3672,-4.3673,-4.3674,-4.3664,-4.3664,-4.3664,0,0,0,0,0,-4.3442,-4.3453,-4.346,-4.3466,-4.3505,-4.3529,-4.3534,-4.3551,-4.3552,-4.3558,-4.3574,-4.3581,-4.3624,-4.3619,-4.3625,-4.3631,-4.3672,-4.3673,-4.3673,-4.3664,-4.3664,-4.3664,0,0,0,0,0,0,-4.3423,-4.3457,-4.3465,-4.3485,-4.3505,-4.3532,-4.3541,-4.355,-4.3568,-4.3568,-4.3587,-4.3592,-4.3611,-4.3623,-4.3617,-4.3648,-4.3649,-4.365,-4.3639,-4.364,-4.364,-4.3637,-4.3626,0,0,0,0,0,-4.3422,-4.344,-4.3468,-4.3484,-4.3493,-4.3516,-4.3527,-4.3538,-4.3558,-4.3566,-4.3583,-4.3601,-4.3619,-4.363,-4.3647,-4.3666,-4.3672,-4.3673,-4.3673,-4.3673,-4.3675,-4.3687,-4.3688,-4.3676,-4.3676,-4.3676,0,0,-4.3418,-4.3439,-4.3449,-4.348,-4.3497,-4.3515,-4.3522,-4.354,-4.3553,-4.3568,-4.3589,-4.3602,-4.3624,-4.3644,-4.3653,-4.3654,-4.368,-4.3674,-4.3674,-4.3675,-4.3688,-4.3689,-4.369,-4.3676,-4.3676,-4.3676,0,0,-4.3421,-4.3438,-4.3454,-4.3471,-4.3497,-4.3512,-4.3516,-4.3543,-4.3553,-4.3575,-4.3587,-4.3602,-4.3632,-4.3648,-4.3659,-4.3671,-4.3678,-4.3676,-4.3676,-4.3688,-4.3689,-4.369,-4.3695,-4.3697,-4.3677,-4.3677,-4.3677,0,-4.3412,-4.3441,-4.3461,-4.3479,-4.3493,-4.351,-4.3526,-4.3541,-4.357,-4.3579,-4.358,-4.3619,-4.3635,-4.3659,-4.3663,-4.3671,-4.3676,-4.3673,-4.3688,-4.3689,-4.369,-4.3695,-4.3697,-4.3677,-4.3677,-4.3677,-4.3677,0,-4.343,-4.345,-4.346,-4.349,-4.3505,-4.3522,-4.3544,-4.3557,-4.3567,-4.3582,-4.3605,-4.3624,-4.3647,-4.3654,-4.3663,-4.368,-4.368,-4.3684,-4.3685,-4.369,-4.3696,-4.3698,-4.3676,-4.3676,-4.3677,-4.3677,0,0,-4.342,-4.3464,-4.3467,-4.3482,-4.3513,-4.3528,-4.3546,-4.357,-4.3581,-4.3601,-4.3617,-4.3643,-4.3648,-4.3661,-4.3673,-4.3683,-4.3693,-4.3686,-4.3687,-4.3687,-4.3714,-4.3711,-4.3713,-4.3698,-4.3699,-4.3699,-4.3713,0,-4.3428,-4.3463,-4.3482,-4.3509,-4.3528,-4.3545,-4.3561,-4.3581,-4.3596,-4.3614,-4.363,-4.3649,-4.3653,-4.3661,-4.3673,-4.3689,-4.3698,-4.3688,-4.3713,-4.3713,-4.3707,-4.3716,-4.3712,-4.3724,-4.3715,-4.3715,-4.3715,0,-4.344,-4.3463,-4.3492,-4.3523,-4.3532,-4.3546,-4.3571,-4.3588,-4.3611,-4.3622,-4.3638,-4.365,-4.367,-4.367,-4.3697,-4.369,-4.3702,-4.3711,-4.3712,-4.3715,-4.3715,-4.3719,-4.3728,-4.373,-4.3718,-4.3718,-4.3718,0,-4.3432,-4.3469,-4.3492,-4.3504,-4.354,-4.355,-4.3565,-4.3589,-4.3603,-4.3625,-4.3634,-4.3657,-4.3669,-4.3686,-4.3704,-4.3702,-4.373,-4.3731,-4.3739,-4.3739,-4.3744,-4.3743,-4.3755,-4.375,-4.375,-4.375,-4.375,0,-4.3438,-4.3455,-4.3489,-4.3503,-4.3523,-4.3546,-4.3565,-4.3581,-4.3603,-4.362,-4.3635,-4.3651,-4.3674,-4.3692,-4.3706,-4.3727,-4.3732,-4.3741,-4.3745,-4.374,-4.3739,-4.3747,-4.3747,-4.3751,-4.3751,-4.3751,-4.3751,0,-4.3431,-4.3454,-4.3481,-4.3514,-4.3523,-4.3536,-4.3564,-4.3579,-4.3595,-4.3617,-4.3623,-4.3649,-4.3672,-4.3692,-4.3721,-4.3731,-4.3753,-4.3757,-4.3746,-4.3748,-4.3755,-4.3754,-4.3773,-4.3777,-4.3769,-4.3769,-4.3769,0,-4.3433,-4.3448,-4.3484,-4.3498,-4.3513,-4.3535,-4.355,-4.3573,-4.3588,-4.3618,-4.3628,-4.3653,-4.3674,-4.3709,-4.373,-4.3753,-4.3758,-4.3763,-4.3761,-4.3757,-4.3759,-4.3758,-4.376,-4.3762,-4.3762,-4.3762,-4.3762,0,-4.3436,-4.3448,-4.347,-4.3498,-4.3516,-4.3538,-4.356,-4.357,-4.3597,-4.3614,-4.3639,-4.3655,-4.3687,-4.3711,-4.3736,-4.3751,-4.3761,-4.3763,-4.3766,-4.3762,-4.3755,-4.376,-4.3746,-4.3762,-4.3762,-4.3762,-4.3762,-4.3762,-4.3434,-4.3449,-4.3477,-4.3502,-4.3522,-4.3543,-4.3559,-4.358,-4.3601,-4.363,-4.3642,-4.3667,-4.3692,-4.3728,-4.3743,-4.3763,-4.3764,-4.3769,-4.377,-4.3771,-4.3771,-4.3752,-4.3767,-4.3767,-4.3767,-4.3767,-4.3767,0,-4.3438,-4.3458,-4.3481,-4.3514,-4.3534,-4.3544,-4.357,-4.3586,-4.3609,-4.3632,-4.3653,-4.3682,-4.3706,-4.373,-4.3755,-4.3767,-4.3772,-4.3773,-4.3772,-4.3776,-4.3767,-4.3762,-4.3768,-4.3768,-4.3768,-4.3768,-4.3768,-4.3768,-4.3443,-4.3468,-4.3484,-4.352,-4.3539,-4.3566,-4.358,-4.36,-4.3619,-4.3652,-4.3673,-4.3689,-4.3712,-4.374,-4.3763,-4.3769,-4.3778,-4.3777,-4.3785,-4.3776,-4.3776,-4.3775,-4.3771,-4.3779,-4.3779,-4.3792,-4.3792,-4.3792]}]]